[[{"header":{"parameterUnit":"m.s-1","parameterCategory":1,"la1":30.2991,"la2":30.254,"lo1":-89.0895,"lo2":-89.0444,"dy":0.0017,"dx":0.0017,"nx":28,"ny":28,"refTime":"2025-03-19T09:00:00:Z","depth":0,"parameterNumber":2,"parameterNumberName":"U-component_of_WINDS"},"data":[0,0,0,0,0,0,0,0,0,0,0,0,0,0,0,0,0,0,0,0,0,0,0,0,0,0,0,0,0,0,0,0,0,0,0,0,0,0,0,0,0,0,0,0,0,0,0,0,0,0,0,0,0,0,0,0,0,0,0.9482,0.9482,0,0.9447,0.9447,0.9446,0.943,0.943,0.943,0.943,0.9391,0.939,0.9389,0,0,0,0,0,0,0,0,0,0,0,0,0,0.9534,0.9534,0.9482,0.9482,0.9481,0.9447,0.9447,0.9446,0.943,0.943,0.943,0.943,0.9392,0.9391,0.9389,0,0,0,0,0,0,0,0,0,0,0,0,0,0.9507,0.9533,0.9482,0.9469,0.9468,0.9447,0.9447,0.9446,0.943,0.943,0.943,0.943,0.9392,0.9391,0.9389,0.9378,0,0,0.9384,0.9384,0,0,0,0,0,0,0,0,0.9508,0.9505,0.9472,0.947,0.9468,0.9443,0.9451,0.9423,0.943,0.9444,0.943,0.943,0.9408,0.9405,0.9399,0.9376,0.9375,0.9384,0.9383,0.9382,0.9382,0,0,0,0,0,0,0,0.951,0.9506,0.9468,0.9471,0.9469,0.9465,0.9461,0.9445,0.9426,0.9443,0.9442,0.9438,0.9407,0.94,0.9398,0.9374,0.9384,0.9383,0.9382,0.9381,0.9342,0.9342,0,0,0,0,0,0,0.9515,0.9508,0.9469,0.9467,0.9489,0.9464,0.9459,0.9451,0.9426,0.9423,0.9438,0.9437,0.9403,0.9399,0.9396,0.9382,0.9382,0.9381,0.938,0.9342,0.9342,0.9342,0,0,0,0,0,0,0.9516,0.9511,0.9471,0.9487,0.9482,0.9463,0.9453,0.945,0.9443,0.9423,0.9419,0.9434,0.9403,0.9398,0.9383,0.9381,0.938,0.9379,0.9342,0.9342,0.9342,0.9354,0,0,0,0,0,0,0.9517,0.9512,0.9508,0.9487,0.9481,0.9459,0.9453,0.945,0.9441,0.9439,0.9418,0.9415,0.9403,0.9386,0.9382,0.9378,0.9378,0.9343,0.9342,0.9342,0.9354,0.9354,0.9355,0,0,0,0,0,0.9519,0.9512,0.9507,0.9503,0.9475,0.9459,0.9455,0.9442,0.944,0.9436,0.9423,0.9415,0.9382,0.9384,0.938,0.9376,0.9343,0.9342,0.9342,0.9353,0.9354,0.9355,0,0,0,0,0,0,0.9531,0.9509,0.9504,0.9489,0.9476,0.9456,0.945,0.9443,0.9429,0.9428,0.9412,0.9408,0.9394,0.9383,0.9386,0.9365,0.9362,0.936,0.9372,0.9372,0.9373,0.9375,0.9376,0,0,0,0,0,0.9532,0.9521,0.9502,0.9491,0.9485,0.9468,0.9461,0.9452,0.9437,0.9431,0.9417,0.9403,0.9389,0.938,0.9366,0.9353,0.9348,0.9348,0.9348,0.9349,0.9348,0.934,0.934,0.9342,0.9342,0.9342,0,0,0.9533,0.952,0.9514,0.9493,0.9481,0.947,0.9464,0.9451,0.9442,0.9429,0.9414,0.9404,0.9386,0.9372,0.9365,0.9363,0.9347,0.9349,0.9349,0.9348,0.934,0.934,0.934,0.9342,0.9342,0.9342,0,0,0.953,0.9519,0.9509,0.9499,0.9482,0.9472,0.947,0.9451,0.9443,0.9429,0.9419,0.9408,0.9384,0.9373,0.9364,0.9359,0.9351,0.9355,0.9357,0.935,0.935,0.935,0.9348,0.9347,0.9354,0.9354,0.9354,0,0.9534,0.9517,0.9505,0.9493,0.9485,0.9474,0.9463,0.9453,0.9433,0.9427,0.9425,0.9397,0.9384,0.9368,0.9367,0.936,0.9357,0.9356,0.9351,0.9351,0.935,0.9348,0.9348,0.9354,0.9354,0.9354,0.9354,0,0.9522,0.951,0.9504,0.9486,0.9477,0.9466,0.9452,0.9444,0.9437,0.9427,0.9413,0.9398,0.9381,0.9377,0.9369,0.9359,0.9358,0.9354,0.9351,0.9351,0.9349,0.9348,0.9355,0.9355,0.9355,0.9355,0,0,0.9523,0.9501,0.9498,0.949,0.9472,0.9463,0.9452,0.9437,0.943,0.9417,0.9408,0.9389,0.9386,0.9376,0.9367,0.9361,0.9358,0.9357,0.9357,0.9358,0.9347,0.9349,0.9349,0.9354,0.9353,0.9353,0.9348,0,0.9518,0.9498,0.9488,0.9473,0.9462,0.9452,0.9443,0.9431,0.9421,0.9411,0.94,0.9387,0.9384,0.9378,0.9372,0.936,0.9355,0.936,0.9344,0.9343,0.9348,0.9348,0.935,0.9346,0.9347,0.9347,0.9347,0,0.9508,0.9496,0.948,0.9464,0.9459,0.9451,0.9437,0.9427,0.9413,0.9407,0.9397,0.9389,0.9377,0.9376,0.9359,0.9363,0.9356,0.9349,0.9349,0.9346,0.9344,0.9344,0.9344,0.9343,0.9345,0.9346,0.9346,0,0.951,0.949,0.9478,0.9472,0.9453,0.9448,0.944,0.9426,0.9418,0.9406,0.9401,0.9387,0.938,0.9369,0.9358,0.9358,0.9343,0.934,0.9337,0.9337,0.9333,0.9333,0.9331,0.933,0.933,0.933,0.933,0,0.9504,0.9494,0.9479,0.9472,0.9461,0.945,0.9439,0.943,0.9419,0.941,0.9401,0.9392,0.9377,0.9367,0.9358,0.9346,0.9343,0.9337,0.9335,0.9337,0.9338,0.9332,0.9332,0.933,0.933,0.933,0.933,0,0.9504,0.9494,0.948,0.9464,0.946,0.9453,0.9439,0.9432,0.9423,0.9411,0.9408,0.9394,0.9381,0.9369,0.9352,0.9346,0.9334,0.9331,0.9339,0.9337,0.9335,0.9335,0.9328,0.9326,0.9327,0.9327,0.9327,0,0.95,0.9493,0.9477,0.9471,0.9463,0.9453,0.9445,0.9434,0.9426,0.9411,0.9406,0.9393,0.9382,0.9362,0.935,0.9338,0.9334,0.9332,0.9332,0.9335,0.9333,0.9334,0.9333,0.9332,0.9332,0.9332,0.9332,0,0.9495,0.9491,0.948,0.9468,0.946,0.945,0.9439,0.9434,0.9421,0.9413,0.9401,0.9393,0.9376,0.9363,0.935,0.9341,0.9335,0.9333,0.9332,0.9334,0.9338,0.9336,0.9339,0.9333,0.9333,0.9333,0.9333,0.9333,0.9493,0.9486,0.9474,0.9463,0.9455,0.9445,0.9438,0.9429,0.9419,0.9405,0.9399,0.9387,0.9375,0.9356,0.9348,0.9338,0.9336,0.9334,0.9333,0.9332,0.9333,0.9341,0.9335,0.9335,0.9335,0.9335,0.9335,0,0.9486,0.9479,0.9469,0.9455,0.9447,0.9443,0.9432,0.9425,0.9414,0.9404,0.9394,0.938,0.9368,0.9356,0.9344,0.9338,0.9335,0.9335,0.9335,0.9333,0.9335,0.9338,0.9338,0.9338,0.9338,0.9338,0.9338,0.9338,0.9482,0.9471,0.9465,0.945,0.9442,0.9431,0.9425,0.9416,0.9408,0.9394,0.9384,0.9377,0.9366,0.9353,0.9342,0.9339,0.9335,0.9336,0.9331,0.9333,0.9333,0.9333,0.9335,0.9335,0.9335,0.933,0.933,0.933]},{"header":{"parameterUnit":"m.s-1","parameterCategory":1,"la1":30.2991,"la2":30.254,"lo1":-89.0895,"lo2":-89.0444,"dy":0.0017,"dx":0.0017,"nx":28,"ny":28,"refTime":"2025-03-19T09:00:00:Z","depth":0,"parameterNumber":3,"parameterNumberName":"V-component_of_WINDS"},"data":[0,0,0,0,0,0,0,0,0,0,0,0,0,0,0,0,0,0,0,0,0,0,0,0,0,0,0,0,0,0,0,0,0,0,0,0,0,0,0,0,0,0,0,0,0,0,0,0,0,0,0,0,0,0,0,0,0,0,-4.9636,-4.9638,0,-4.9867,-4.987,-4.9872,-4.9816,-4.9812,-4.9807,-4.9803,-5.0038,-5.0048,-5.0058,0,0,0,0,0,0,0,0,0,0,0,0,0,-4.9143,-4.9153,-4.9636,-4.9639,-4.9642,-4.9867,-4.987,-4.9873,-4.9817,-4.9811,-4.9806,-4.9801,-5.0034,-5.0047,-5.0059,0,0,0,0,0,0,0,0,0,0,0,0,0,-4.9364,-4.9156,-4.9635,-4.9641,-4.9644,-4.9866,-4.987,-4.9874,-4.9818,-4.9811,-4.9805,-4.9798,-5.003,-5.0045,-5.0061,-5.0292,0,0,-5.0109,-5.0115,0,0,0,0,0,0,0,0,-4.9352,-4.9382,-4.9637,-4.9641,-4.9644,-4.9806,-4.9782,-5.0014,-4.982,-4.9752,-4.9803,-4.9795,-4.9966,-4.9986,-5.0044,-5.0303,-5.0313,-5.011,-5.0119,-5.0126,-5.0131,0,0,0,0,0,0,0,-4.9336,-4.9372,-4.9727,-4.9641,-4.9645,-4.9631,-4.9655,-4.9826,-4.9894,-4.9757,-4.9754,-4.9782,-4.9966,-5.0029,-5.0049,-5.0316,-5.0109,-5.0123,-5.0133,-5.0139,-5.0775,-5.0782,0,0,0,0,0,0,-4.9318,-4.936,-4.972,-4.9734,-4.9478,-4.9645,-4.9672,-4.9761,-4.9892,-4.9905,-4.9787,-4.9778,-5.0006,-5.0031,-5.0058,-5.0337,-5.0126,-5.0141,-5.015,-5.0768,-5.0777,-5.0785,0,0,0,0,0,0,-4.9308,-4.9351,-4.9711,-4.9546,-4.9591,-4.9661,-4.9761,-4.9769,-4.9832,-4.9914,-4.9926,-4.984,-5.0002,-5.0036,-5.0234,-5.0344,-5.0148,-5.0162,-5.0759,-5.0771,-5.0781,-5.0898,0,0,0,0,0,0,-4.9294,-4.9348,-4.9437,-4.9549,-4.96,-4.9885,-4.9768,-4.9778,-4.9859,-4.985,-4.9966,-4.9979,-4.9999,-5.0211,-5.025,-5.0362,-5.0174,-5.0749,-5.0764,-5.0777,-5.0884,-5.0912,-5.0935,0,0,0,0,0,-4.9277,-4.946,-4.9442,-4.9485,-4.9713,-4.9891,-4.992,-4.994,-4.9868,-4.9958,-5.0011,-4.9976,-5.0326,-5.0232,-5.0275,-5.0394,-5.0743,-5.076,-5.0776,-5.0873,-5.0906,-5.0934,0,0,0,0,0,0,-4.9359,-4.9475,-4.9456,-4.9681,-4.9777,-4.9881,-4.9995,-4.9974,-5.0092,-5.0078,-5.0097,-5.0124,-5.0326,-5.0379,-5.0273,-5.0624,-5.0524,-5.055,-5.0582,-5.0615,-5.064,-5.0623,-5.0187,0,0,0,0,0,-4.9403,-4.9539,-4.9632,-4.9822,-4.9871,-4.9925,-5.0003,-5.001,-5.011,-5.015,-5.0217,-5.0315,-5.0447,-5.0533,-5.0659,-5.0891,-5.0916,-5.0994,-5.1019,-5.104,-5.1063,-5.119,-5.1226,-5.0841,-5.0841,-5.084,0,0,-4.9496,-4.9576,-4.9661,-4.984,-4.9915,-5.0055,-4.9959,-5.0111,-5.0215,-5.0173,-5.0365,-5.0418,-5.0527,-5.0744,-5.0843,-5.0795,-5.1174,-5.1061,-5.1077,-5.1089,-5.1211,-5.1247,-5.1279,-5.0852,-5.085,-5.0848,0,0,-4.9737,-4.9811,-4.9977,-5.0055,-5.017,-5.0204,-5.0244,-5.0353,-5.0386,-5.0579,-5.0551,-5.0673,-5.09,-5.098,-5.105,-5.1321,-5.1293,-5.1361,-5.1494,-5.1618,-5.1648,-5.1675,-5.1772,-5.1807,-5.1384,-5.1384,-5.1384,0,-4.9838,-5.0048,-5.0065,-5.022,-5.03,-5.0269,-5.0437,-5.0511,-5.0661,-5.0717,-5.066,-5.0945,-5.1016,-5.1251,-5.1318,-5.1375,-5.1421,-5.1349,-5.1642,-5.167,-5.1695,-5.1788,-5.1825,-5.1392,-5.1391,-5.139,-5.1389,0,-5.0167,-5.0313,-5.0433,-5.058,-5.0673,-5.0834,-5.0875,-5.0967,-5.0965,-5.1006,-5.1203,-5.1287,-5.143,-5.1486,-5.1486,-5.1721,-5.1688,-5.1637,-5.1537,-5.1739,-5.1827,-5.1863,-5.1403,-5.14,-5.1398,-5.1396,0,0,-5.0468,-5.0622,-5.0666,-5.0732,-5.0856,-5.0969,-5.1128,-5.1268,-5.1347,-5.1451,-5.1585,-5.1778,-5.1732,-5.1811,-5.1819,-5.1928,-5.2138,-5.1863,-5.1866,-5.1912,-5.2403,-5.2442,-5.2483,-5.2119,-5.2126,-5.2131,-5.2394,0,-5.0721,-5.1002,-5.1022,-5.1276,-5.1411,-5.1382,-5.1521,-5.1612,-5.1653,-5.1773,-5.1818,-5.1955,-5.1883,-5.1931,-5.2037,-5.209,-5.2236,-5.2071,-5.2244,-5.225,-5.2219,-5.2529,-5.257,-5.2814,-5.2428,-5.2434,-5.2439,0,-5.1054,-5.1169,-5.1437,-5.1542,-5.16,-5.1724,-5.1854,-5.197,-5.2072,-5.2094,-5.2183,-5.2176,-5.2339,-5.2231,-5.2455,-5.2342,-5.2414,-5.245,-5.246,-5.2478,-5.2357,-5.2556,-5.2893,-5.293,-5.2493,-5.2488,-5.2484,0,-5.1248,-5.147,-5.1659,-5.1716,-5.1844,-5.1932,-5.1989,-5.2084,-5.2167,-5.228,-5.2335,-5.2465,-5.2537,-5.2637,-5.2665,-5.2584,-5.2889,-5.2784,-5.2913,-5.2912,-5.2979,-5.2975,-5.3334,-5.3023,-5.3023,-5.3022,-5.3021,0,-5.153,-5.1695,-5.1748,-5.1864,-5.2048,-5.2068,-5.225,-5.2301,-5.2386,-5.2512,-5.2494,-5.2612,-5.2641,-5.2764,-5.2787,-5.297,-5.3002,-5.3024,-5.3029,-5.3027,-5.3024,-5.3075,-5.306,-5.3032,-5.303,-5.3028,-5.3026,0,-5.1778,-5.182,-5.2025,-5.2128,-5.2158,-5.2289,-5.2378,-5.2489,-5.2528,-5.2687,-5.2725,-5.2786,-5.293,-5.2968,-5.314,-5.3155,-5.3371,-5.3358,-5.3337,-5.3337,-5.3464,-5.3452,-5.3869,-5.3925,-5.3577,-5.358,-5.3583,0,-5.1956,-5.2083,-5.22,-5.2283,-5.2344,-5.2478,-5.2563,-5.2587,-5.2676,-5.2802,-5.2899,-5.3041,-5.3156,-5.3387,-5.3446,-5.3578,-5.3569,-5.3706,-5.3589,-5.3583,-5.3573,-5.3565,-5.3578,-5.3729,-5.3732,-5.3735,-5.3738,0,-5.2267,-5.2282,-5.2405,-5.2537,-5.2639,-5.2743,-5.2843,-5.2912,-5.295,-5.305,-5.3198,-5.3287,-5.3463,-5.3605,-5.3737,-5.3794,-5.3774,-5.3774,-5.3811,-5.3812,-5.3795,-5.3807,-5.3399,-5.3765,-5.3762,-5.376,-5.3759,-5.3758,-5.2487,-5.2598,-5.2699,-5.2837,-5.2914,-5.3008,-5.3118,-5.3171,-5.3295,-5.3441,-5.3447,-5.3607,-5.3705,-5.3881,-5.3946,-5.4072,-5.403,-5.4084,-5.4097,-5.4111,-5.4122,-5.3773,-5.4096,-5.4095,-5.4094,-5.4094,-5.4093,0,-5.2799,-5.2861,-5.2988,-5.3129,-5.3238,-5.3208,-5.3316,-5.3409,-5.3551,-5.3645,-5.3759,-5.3928,-5.4065,-5.4135,-5.427,-5.4357,-5.4351,-5.4392,-5.4387,-5.4401,-5.4151,-5.4106,-5.4395,-5.4395,-5.4395,-5.4395,-5.4395,-5.4395,-5.2974,-5.3161,-5.3187,-5.3412,-5.3473,-5.3632,-5.3696,-5.3782,-5.3857,-5.4048,-5.4162,-5.4206,-5.4291,-5.4432,-5.4556,-5.4573,-5.4624,-5.4671,-5.4683,-5.4449,-5.4418,-5.4389,-5.4347,-5.4682,-5.4682,-5.4922,-5.4924,-5.4926]}]]